Theta_e
321 322 318 316 318 319 319 320 318 317 316 314 314 314 315 315 315 316 315 314 314 314 314 315 315 315 314 313 314 314 313 313 312 310 310 309 308 308 307 308 308 307 308 308 307 308 308 307 307 308 308 309 309 309 310 309 309 309 308 308 307 306 306 306 306 307 307 307 306 305 304 304 303 302 302 302 302 302 302 302 302 302 302 303 304
322 322 319 317 319 320 319 319 318 317 316 316 315 315 315 315 315 316 316 314 315 315 316 316 316 316 316 315 315 316 316 316 316 315 315 314 313 312 310 309 309 308 308 308 308 308 308 308 307 307 307 308 308 308 309 309 309 309 308 307 307 306 305 305 305 305 306 307 306 305 304 304 303 302 301 302 303 303 302 302 302 303 303 303 303
323 322 320 320 321 320 319 319 318 317 316 316 316 315 316 316 315 316 316 315 316 316 316 316 317 317 316 316 316 316 317 317 317 317 317 317 317 316 316 314 313 312 310 309 308 308 308 308 308 308 308 307 307 308 308 308 308 308 308 307 306 305 304 304 304 303 304 305 305 305 304 303 302 301 300 301 302 303 303 303 302 303 303 303 304
323 322 321 323 323 321 320 319 318 317 316 317 317 316 316 316 316 315 316 316 316 316 317 317 317 317 317 317 316 316 317 317 317 317 317 317 317 317 318 317 317 316 314 313 311 311 310 308 308 308 308 308 307 307 307 308 308 307 307 307 306 305 304 303 303 303 302 303 304 304 303 302 301 300 300 301 302 302 303 303 303 303 303 304 305
323 323 322 322 322 321 321 320 319 318 317 318 318 317 317 317 316 316 316 316 316 317 318 318 318 318 317 317 316 317 317 317 316 317 316 316 317 317 318 318 318 317 317 316 314 314 313 311 309 308 308 308 308 308 308 308 308 307 307 306 305 305 304 304 304 304 303 302 303 303 303 302 301 300 299 300 301 302 302 303 304 304 304 304 305
323 323 321 320 321 322 321 320 320 319 318 318 318 318 319 318 317 317 316 317 317 317 319 319 319 318 317 317 317 317 317 317 316 316 315 315 316 317 318 318 318 318 317 316 316 315 315 313 311 310 309 309 308 308 308 308 308 307 306 306 305 305 305 305 305 305 304 303 302 302 302 301 301 300 299 299 299 300 301 302 303 304 304 305 305
323 322 319 319 321 321 320 320 320 320 319 319 318 318 318 318 318 319 318 318 318 318 319 319 319 318 317 317 317 317 317 317 316 315 315 315 315 316 317 317 317 318 317 317 316 315 315 314 313 311 311 310 309 308 308 308 307 307 306 306 306 306 306 306 305 304 303 302 301 300 300 299 299 299 299 299 298 298 299 300 301 302 303 303 303
322 322 320 319 320 321 321 321 320 320 319 319 318 318 318 318 318 319 319 319 319 319 318 318 319 318 318 317 317 317 317 317 315 314 313 314 314 314 313 314 317 318 317 317 317 316 315 314 313 312 311 311 310 309 308 308 307 307 307 306 306 307 306 305 304 303 302 301 299 299 299 298 298 298 298 298 298 298 298 298 299 299 300 301 301
321 320 319 319 319 320 320 321 321 320 319 318 317 317 317 317 318 318 318 318 318 318 317 317 317 317 318 318 318 318 318 316 314 312 313 314 314 314 313 315 317 318 317 317 317 316 315 315 314 313 312 312 311 310 309 308 308 308 307 307 307 306 305 304 303 302 300 299 298 298 298 298 297 297 298 297 297 298 298 298 298 298 298 299 299
320 319 318 318 319 319 319 320 320 319 318 318 317 317 317 318 318 318 318 318 317 316 316 316 316 316 317 317 316 317 316 315 314 313 315 315 315 316 316 316 317 318 318 317 317 316 315 315 314 313 312 312 311 311 310 309 308 308 308 308 308 307 305 303 301 300 299 298 298 297 297 297 297 296 297 297 296 296 297 297 297 298 298 298 299
321 321 320 320 321 321 319 319 319 317 318 318 317 317 317 317 317 317 317 316 315 314 314 316 316 315 315 315 314 314 314 314 314 314 315 316 316 317 317 317 317 317 318 318 317 316 315 314 314 313 313 312 312 311 310 309 308 308 308 308 308 307 305 303 301 300 299 298 298 297 297 297 297 296 296 296 296 296 296 296 296 297 297 297 298
319 320 319 319 319 318 316 316 316 316 317 317 315 314 314 313 314 314 314 313 312 312 312 312 312 312 313 314 315 315 315 315 314 314 314 316 317 318 318 318 317 317 318 318 317 315 314 314 313 313 312 312 312 311 310 309 309 309 308 308 308 307 306 303 301 300 299 299 298 297 297 296 296 296 296 296 296 296 296 296 296 296 296 296 296
313 313 313 313 313 311 311 311 311 312 314 314 312 311 310 310 310 311 312 312 312 312 312 311 311 312 313 315 315 315 316 315 315 315 315 316 317 318 319 319 319 318 318 318 317 315 314 314 313 312 312 312 312 311 309 309 309 309 309 308 307 306 305 303 302 300 300 299 299 298 297 296 296 296 296 296 296 296 296 296 296 296 296 296 296
308 308 308 309 309 309 309 309 309 310 311 311 310 309 309 310 310 310 311 311 311 312 313 313 313 314 314 314 314 314 314 314 314 313 312 312 312 313 315 317 319 319 318 318 317 316 315 314 313 312 311 311 311 310 308 308 308 308 307 307 306 305 303 302 301 300 300 300 299 298 298 297 296 296 296 296 296 296 296 296 296 296 296 296 296
306 307 307 308 308 308 308 309 309 309 309 309 310 310 310 310 310 310 310 311 312 313 314 314 314 314 313 313 313 313 312 310 309 307 306 306 306 308 312 315 317 318 318 317 316 315 314 313 312 311 311 310 310 308 307 306 306 306 305 305 304 303 302 301 301 300 300 300 299 299 298 297 297 296 296 296 296 296 296 296 296 296 296 296 296
306 307 308 308 308 308 308 308 308 309 309 309 309 308 306 306 306 306 307 309 311 312 312 311 311 311 311 311 311 311 310 308 306 304 303 302 302 305 309 313 316 317 317 316 315 314 313 312 311 311 310 309 308 306 305 305 305 305 304 303 303 302 301 301 301 300 300 300 299 299 298 298 297 296 296 296 296 296 296 296 296 296 295 295 295
307 307 307 307 307 307 307 308 309 308 309 308 306 303 302 302 303 303 303 304 304 305 306 306 306 306 307 308 309 310 310 308 306 304 303 301 302 303 305 308 311 314 315 315 314 313 312 311 310 310 308 307 305 305 305 305 305 304 303 302 302 301 301 301 300 300 300 300 299 299 298 297 297 297 296 296 296 296 296 296 295 295 295 294 294
307 307 307 306 306 306 306 307 307 308 308 306 304 303 302 302 302 302 302 302 303 304 304 305 306 306 306 307 308 309 310 309 307 306 305 304 303 304 305 308 310 312 313 313 312 311 309 309 309 309 307 306 305 305 305 305 304 303 302 302 301 301 301 301 300 300 300 299 299 298 298 297 297 296 296 296 296 295 295 295 294 294 294 293 293
306 307 306 306 306 306 307 307 307 307 307 306 306 305 304 303 302 302 302 302 302 304 305 306 307 308 308 309 309 309 309 309 309 309 308 307 306 306 307 310 312 312 312 311 310 309 309 309 309 308 307 306 306 306 305 304 303 303 302 302 301 301 301 301 300 300 299 298 298 297 296 296 296 295 295 295 294 294 294 294 294 293 293 293 292
305 306 306 306 306 306 307 308 308 307 307 307 306 305 305 304 304 303 303 302 301 302 304 307 308 309 310 310 310 310 309 309 310 310 310 309 308 307 307 309 311 312 311 310 310 309 309 308 308 307 306 306 305 304 304 303 303 302 302 301 301 301 300 300 299 298 298 297 296 295 295 294 294 294 294 294 294 293 293 293 293 293 293 292 292
305 305 305 305 306 306 306 306 306 306 306 306 306 306 306 305 305 304 304 303 303 302 302 304 306 308 309 310 310 310 310 310 310 310 310 310 309 308 307 307 309 310 310 310 309 308 308 307 306 306 305 304 304 303 302 302 301 301 300 300 300 299 299 298 297 296 296 295 294 294 294 294 294 293 293 293 293 292 292 292 292 292 292 292 292
305 305 305 305 305 305 305 305 305 305 305 305 305 306 307 307 307 306 306 304 304 304 303 302 302 304 307 308 310 310 310 310 311 311 310 310 309 308 307 306 307 308 308 308 308 307 306 305 304 304 303 302 302 301 300 300 300 300 299 299 298 297 296 295 295 294 294 294 294 294 293 293 293 292 292 292 292 291 291 291 291 291 291 292 292
305 305 305 305 305 305 305 305 305 304 304 304 304 305 307 307 307 307 306 305 305 304 304 303 302 302 305 307 309 310 310 311 311 310 310 310 309 308 306 305 305 305 306 307 307 306 305 304 303 302 302 301 300 300 300 300 300 298 297 296 295 294 294 294 294 294 294 294 294 293 293 292 291 291 291 291 291 291 291 291 291 291 291 291 292
304 304 304 304 304 305 305 305 305 304 304 304 304 304 305 305 305 304 304 304 304 304 303 303 302 304 306 309 310 310 310 310 310 310 310 309 308 307 305 305 305 305 305 306 305 304 303 303 302 301 301 300 299 299 298 297 296 295 295 294 294 294 294 294 294 294 293 293 292 292 291 291 291 290 290 290 290 291 290 290 291 291 291 292 292
303 303 304 304 304 304 304 304 304 304 304 304 304 304 304 303 303 303 303 303 303 304 303 303 303 304 307 308 308 308 308 309 309 309 309 308 307 306 305 305 305 305 305 305 304 303 301 300 299 298 297 297 296 296 296 295 295 295 295 295 295 294 294 294 293 293 292 292 291 291 291 290 290 290 290 290 290 290 290 290 291 291 291 291 291
302 302 303 303 303 303 303 304 304 304 304 304 304 304 304 303 303 303 303 303 304 304 304 304 304 305 306 307 306 305 306 307 308 308 308 307 305 305 304 304 304 303 302 300 299 298 297 295 295 295 295 295 296 296 296 295 295 294 294 294 294 294 294 293 293 292 291 291 291 291 291 290 290 290 290 290 290 290 290 290 290 290 291 291 291
302 302 302 302 302 303 303 303 303 303 304 304 304 304 303 303 303 303 303 304 303 303 305 306 306 306 307 307 305 304 304 304 306 307 307 305 304 304 303 302 301 299 297 296 295 295 295 294 294 295 295 295 295 294 294 294 294 294 294 294 294 293 293 292 292 291 291 291 290 290 290 290 290 290 290 290 290 290 290 290 290 290 290 291 290
302 302 302 302 303 303 303 303 303 303 303 303 303 303 302 302 303 303 303 303 302 303 306 307 307 306 306 306 305 304 303 304 305 305 305 304 303 301 300 298 297 296 295 295 295 296 296 295 295 295 294 294 293 293 293 294 294 294 293 293 293 292 292 291 291 291 290 290 290 290 290 290 290 290 291 291 290 290 290 290 290 290 290 290 290
301 302 302 302 302 302 302 302 302 302 303 303 302 302 302 302 303 303 303 303 302 303 305 306 305 304 304 305 304 304 304 304 304 303 302 301 299 297 296 296 295 296 296 296 296 296 295 295 294 294 293 293 293 293 293 293 293 293 293 292 292 291 291 291 290 290 290 290 289 289 289 289 290 290 290 291 291 291 291 290 290 290 290 290 290
299 300 301 302 302 302 302 302 302 302 302 302 302 302 302 302 302 302 302 303 303 303 304 304 303 303 304 305 304 304 304 304 303 301 300 298 296 295 296 296 296 296 296 296 296 296 295 294 294 293 293 293 293 293 293 293 292 292 292 291 291 291 290 290 290 289 289 289 289 288 289 289 289 290 290 290 290 291 291 290 290 290 290 290 289
299 299 300 300 301 302 302 302 302 302 302 302 302 302 303 302 302 302 302 303 303 303 303 303 303 304 305 305 305 304 303 302 300 300 299 297 296 296 296 296 296 296 296 296 296 295 294 293 293 293 293 293 293 293 292 292 292 291 291 291 291 290 290 290 289 289 289 288 288 288 289 289 289 290 290 290 290 290 290 290 290 290 290 289 289
298 298 299 299 300 300 301 301 302 302 302 302 302 302 302 302 302 302 302 303 303 303 303 303 304 304 304 304 304 304 302 300 299 298 297 297 296 296 296 296 296 296 296 295 294 294 293 293 292 293 293 293 292 292 292 292 291 291 291 290 290 290 289 289 289 288 288 288 288 289 289 289 290 290 290 290 290 290 290 290 290 290 290 289 289
297 297 298 298 298 298 299 301 302 302 302 302 302 302 302 302 302 302 302 303 303 303 304 304 304 304 304 304 303 302 301 299 298 297 297 296 296 296 296 296 295 295 295 294 293 293 292 292 292 293 292 292 292 292 292 291 291 290 290 290 289 289 289 289 288 288 288 289 289 289 290 290 290 290 290 290 289 289 289 289 290 290 289 289 289
297 297 297 297 297 297 297 298 299 301 302 302 302 302 302 302 302 302 302 303 303 303 303 304 304 304 303 303 301 300 300 299 297 296 296 296 296 296 296 296 295 295 294 293 292 292 292 292 292 292 292 292 292 292 292 291 290 290 290 289 289 289 288 288 288 289 289 290 290 290 290 290 290 290 290 290 289 289 289 290 290 290 289 289 289
296 296 297 297 297 297 297 297 299 300 302 302 302 302 302 302 302 302 302 302 302 303 303 303 303 302 301 301 299 299 299 298 296 296 296 296 296 297 296 295 294 294 293 292 291 291 292 292 292 292 292 292 292 291 291 290 290 289 289 289 289 288 288 289 289 290 290 290 290 290 290 290 290 290 290 290 289 290 290 290 290 290 290 289 290
296 296 296 296 296 297 298 299 300 301 302 302 302 302 302 302 302 301 302 302 302 302 302 301 301 299 299 298 298 298 297 296 296 296 296 297 297 296 295 294 294 293 292 291 291 291 291 292 292 292 292 292 291 291 290 290 289 289 289 289 289 289 289 290 290 290 290 290 290 290 290 290 290 290 290 290 290 290 290 290 290 290 290 290 290
296 296 296 296 296 297 298 299 301 302 302 302 302 302 302 302 301 302 302 302 302 301 301 300 299 298 297 297 296 296 296 296 297 297 297 296 295 295 294 294 294 293 292 291 291 291 292 292 292 292 292 291 291 290 290 289 289 288 288 288 288 289 290 290 290 290 290 290 290 290 290 290 291 290 290 290 290 290 290 291 290 290 291 291 290
297 297 297 296 296 296 297 298 299 301 302 302 302 302 302 302 302 302 302 302 301 300 300 299 298 297 296 296 296 296 297 297 297 297 296 295 294 294 294 294 294 293 291 290 291 291 292 292 292 292 292 292 291 291 290 288 288 287 287 287 288 289 290 290 290 290 290 290 290 291 291 291 291 291 291 291 291 291 291 291 291 291 291 291 291
298 298 298 297 296 296 297 297 298 299 301 302 302 302 302 302 302 302 302 301 300 299 298 298 297 296 296 297 297 297 297 297 296 296 295 294 294 294 294 294 293 292 291 290 291 292 292 292 292 292 292 292 291 289 288 287 287 287 286 286 287 289 290 290 290 290 290 290 291 291 291 291 291 291 291 291 291 291 291 291 292 292 292 293 293
299 299 298 297 297 297 297 298 298 299 300 301 301 302 302 302 302 301 301 299 298 298 297 297 296 297 297 297 297 297 296 296 295 295 294 294 294 294 294 293 292 291 290 290 291 292 292 292 292 292 292 291 290 288 287 287 287 287 286 286 287 289 290 290 290 290 290 290 291 291 291 291 291 291 291 292 292 292 292 292 292 293 293 294 294
299 299 298 298 297 297 297 298 299 299 300 301 301 301 302 302 301 300 299 298 297 297 297 297 297 297 297 296 296 296 295 295 295 294 294 294 294 294 294 293 291 290 290 291 292 292 292 292 292 292 291 290 288 287 287 287 287 287 286 286 287 290 291 290 290 290 290 290 291 291 291 291 291 291 292 292 292 292 292 292 293 293 294 294 295
300 299 299 298 298 298 298 299 300 300 301 301 301 301 301 301 299 298 297 297 297 297 297 297 297 296 296 296 296 295 295 295 295 294 294 294 294 294 294 292 290 289 290 291 291 292 292 292 292 291 290 288 288 287 287 287 287 287 286 286 288 290 291 290 290 290 290 290 291 291 291 291 291 291 292 292 292 292 293 293 293 294 294 295 295
300 299 299 299 298 298 299 300 300 301 301 301 301 300 299 298 297 297 297 297 296 296 297 297 296 296 296 296 296 295 295 295 295 295 294 294 294 294 293 291 290 289 291 291 292 292 292 292 291 290 288 288 288 288 287 287 287 286 285 286 288 290 291 291 290 290 290 290 291 291 291 291 291 291 292 292 292 293 293 293 293 294 294 295 296
300 300 299 299 299 300 300 300 300 300 300 299 299 298 297 297 297 297 296 296 296 296 297 297 296 296 296 296 296 295 295 295 295 295 294 294 294 293 292 291 289 289 290 291 292 292 292 292 291 289 288 288 288 288 287 287 287 286 285 286 289 291 291 291 290 290 290 291 291 291 291 291 291 291 292 292 292 293 293 293 294 294 294 295 295
300 300 299 300 299 299 300 299 299 299 298 298 297 297 297 296 296 296 296 296 297 297 297 297 297 296 296 295 295 295 295 295 295 294 294 294 294 293 292 291 290 288 289 291 292 292 292 292 291 290 289 289 288 288 288 287 287 286 285 287 290 291 291 290 290 290 290 290 291 291 291 291 291 292 292 292 292 293 293 293 294 294 295 295 295
299 299 299 299 299 298 298 298 298 298 297 297 297 296 296 296 296 296 297 297 297 297 297 297 297 296 296 295 295 294 294 294 294 294 294 294 293 292 292 291 290 288 289 291 292 292 292 292 290 290 289 289 289 288 288 288 287 286 286 287 290 291 291 291 290 290 290 290 290 291 291 291 292 292 292 292 292 293 293 293 294 294 294 295 295
297 297 297 297 297 297 297 297 297 297 296 296 296 296 297 297 297 297 297 297 297 297 297 296 296 295 295 294 294 294 294 294 294 293 293 293 292 292 292 291 289 288 290 292 292 292 292 291 290 289 289 289 289 289 288 288 288 286 286 288 290 291 291 291 290 290 290 290 290 290 291 291 292 292 292 292 292 292 293 293 294 294 294 295 295
297 297 297 297 297 297 296 297 297 297 297 297 297 297 297 297 297 297 297 297 297 296 296 295 295 294 294 294 294 294 294 293 292 292 292 292 292 292 291 290 288 288 290 292 292 291 291 291 290 289 289 289 288 289 288 288 288 287 286 288 290 291 291 291 290 290 290 290 290 290 291 291 291 292 292 292 292 292 292 293 293 294 294 294 294
297 297 297 297 297 297 297 297 297 297 298 298 298 297 297 297 297 297 297 296 296 295 295 295 294 294 294 293 293 293 292 292 291 291 292 293 292 292 291 289 287 288 290 291 291 291 291 290 290 289 289 288 288 288 288 288 288 287 287 288 290 291 291 291 290 290 290 290 290 290 290 291 291 291 292 292 292 292 292 293 293 293 294 294 294
297 297 297 297 297 298 298 298 298 298 298 298 298 297 297 297 297 296 296 295 295 295 294 294 294 294 293 293 293 292 292 290 290 292 293 293 292 292 291 289 288 288 289 290 290 289 289 289 289 289 288 288 288 289 288 288 288 287 286 287 290 291 291 290 290 290 290 290 290 290 290 290 291 291 291 292 292 292 292 292 292 293 293 293 294
296 296 296 296 297 297 297 297 298 298 297 297 297 297 296 296 296 295 295 295 295 294 294 294 293 293 293 292 292 292 291 290 290 292 293 293 292 292 292 290 288 288 288 289 289 288 288 288 288 288 288 288 288 289 288 288 288 287 286 287 289 290 291 291 290 290 290 290 289 289 290 290 290 291 291 291 291 291 291 292 292 292 292 293 293
Wind_Speed
37 37 33 32 34 34 31 29 28 26 23 21 20 20 21 21 20 19 17 14 13 13 12 10 10 9 8 7 6 6 6 5 4 3 2 2 1 0 1 1 1 1 2 2 2 2 2 2 3 3 2 1 1 2 3 4 5 5 6 7 8 10 12 14 17 18 15 15 16 15 14 14 13 13 14 13 12 12 11 10 11 11 12 12 12
37 38 33 32 35 34 31 29 29 28 26 24 22 22 23 22 21 21 19 15 14 13 12 11 10 9 8 7 7 7 7 6 5 3 2 2 2 3 4 4 4 4 5 4 4 4 5 5 5 6 5 4 3 3 4 4 4 5 6 7 8 10 13 15 17 20 20 18 18 17 17 17 16 15 15 15 13 12 12 11 10 9 8 8 8
36 36 33 33 35 35 33 30 31 32 28 25 25 25 26 26 25 23 21 17 15 14 12 12 11 10 9 8 8 7 6 4 3 1 1 2 3 5 6 7 7 7 8 7 7 7 8 8 8 8 7 6 6 5 5 6 6 7 7 8 9 10 13 15 17 20 22 22 21 20 20 19 18 17 16 16 14 13 13 11 10 9 9 9 8
30 31 31 33 34 34 33 31 32 32 28 26 27 28 28 29 28 25 22 20 18 17 15 14 13 12 11 10 10 8 6 4 3 3 3 4 6 7 8 9 9 9 10 10 10 10 11 11 11 11 9 8 7 7 7 7 7 7 8 8 9 11 13 15 17 18 21 23 22 22 21 20 19 18 17 17 16 15 13 12 11 10 10 9 9
26 28 30 31 31 31 32 31 31 30 28 28 30 31 33 34 32 28 24 22 21 20 19 18 17 15 13 12 10 8 6 5 6 7 8 9 9 10 11 12 12 12 12 12 12 12 12 13 13 14 12 10 9 9 8 8 8 7 8 9 10 12 14 15 17 17 19 22 23 22 21 20 19 17 18 19 18 17 15 13 13 13 13 11 10
27 29 29 26 26 29 30 28 28 29 30 32 32 30 30 31 31 28 26 24 22 22 21 20 18 16 13 12 11 10 9 8 10 13 14 14 14 13 13 15 16 17 16 15 15 15 14 14 14 15 15 13 12 11 10 9 9 8 9 10 12 13 15 16 17 18 19 20 22 22 21 21 20 18 17 19 20 21 20 18 15 15 16 15 13
28 32 33 28 24 26 29 29 29 29 29 29 29 26 22 22 21 21 24 26 27 26 23 21 18 15 13 13 13 13 12 12 14 17 17 17 16 16 15 17 19 21 20 19 18 18 17 16 17 17 16 15 14 13 11 10 10 10 10 11 12 14 16 17 17 18 19 20 20 21 21 21 21 20 19 19 20 21 22 23 21 19 19 19 18
27 29 32 30 27 23 22 25 27 27 25 23 22 20 20 20 17 15 19 24 25 24 20 17 16 15 14 14 15 15 14 15 18 20 19 17 17 17 18 19 21 24 25 23 21 21 20 19 19 19 17 17 16 15 13 12 11 11 12 12 13 15 16 17 18 18 19 19 19 19 20 20 21 21 20 20 20 20 21 23 25 25 23 23 22
24 23 23 26 27 23 18 19 20 19 19 20 17 15 17 20 20 20 21 22 20 18 16 16 15 15 16 17 18 18 19 20 20 19 17 17 18 19 21 23 23 24 26 27 26 24 23 23 22 21 20 18 18 17 15 14 13 13 13 13 15 16 17 18 18 17 17 17 18 19 20 20 21 21 22 22 22 22 22 23 25 27 27 27 25
17 18 19 21 23 22 21 22 21 17 16 19 20 20 21 23 23 23 23 22 19 17 18 19 17 17 18 19 20 21 22 21 20 18 17 18 19 20 23 25 26 26 26 28 30 28 27 26 25 23 22 21 20 20 18 16 16 15 14 15 16 18 18 18 17 17 17 18 19 20 21 21 21 22 23 23 22 23 23 24 26 26 28 29 27
14 15 17 19 20 18 18 21 23 23 20 18 18 19 20 20 20 20 20 19 18 17 18 17 16 16 17 17 17 18 18 17 17 17 17 17 18 19 22 24 26 27 27 28 31 31 29 28 27 26 25 24 22 21 20 18 16 16 16 17 18 19 19 18 18 19 20 21 21 22 24 24 24 24 25 25 25 24 24 24 26 27 28 30 29
13 13 13 16 16 14 13 15 18 20 19 17 16 16 15 15 15 16 16 15 15 15 15 15 15 15 16 15 15 15 15 16 17 18 18 18 18 20 21 22 24 26 27 28 30 31 30 30 29 29 28 25 23 22 20 18 16 17 18 19 21 22 21 20 20 20 22 23 25 25 26 27 27 27 27 28 28 28 27 27 27 28 29 30 31
9 10 10 12 11 11 13 14 16 17 17 16 15 13 11 11 11 12 13 12 12 13 13 13 14 14 14 14 14 15 16 17 18 18 19 20 20 20 21 21 23 24 25 27 30 31 30 31 31 31 29 26 23 23 21 18 17 19 20 21 22 23 23 22 21 22 23 25 27 28 28 29 30 30 29 30 30 31 31 31 31 32 33 33 34
8 9 11 12 12 13 15 15 15 16 15 14 13 10 9 9 9 9 10 11 11 11 11 12 13 13 13 13 14 16 17 18 18 19 21 22 23 22 21 21 22 22 22 25 29 31 31 31 31 31 29 26 24 22 20 18 18 20 21 23 23 23 22 21 21 23 24 26 28 30 30 31 32 33 32 31 31 32 33 34 35 36 37 37 37
9 11 12 13 13 13 14 15 15 14 14 13 13 11 10 10 11 11 12 12 12 11 11 12 12 13 13 13 14 15 16 17 17 18 20 21 21 21 20 19 19 19 20 24 28 29 28 28 29 29 26 23 22 21 19 18 20 21 22 23 23 22 21 21 22 24 26 28 30 31 32 33 34 34 34 34 33 33 34 36 37 38 39 40 40
10 12 12 13 13 13 13 14 14 15 15 14 13 12 12 13 13 13 13 13 14 13 13 13 13 14 14 14 15 15 15 15 15 16 17 18 18 17 16 15 14 15 17 22 25 26 25 26 28 28 24 22 21 20 19 20 21 23 23 23 23 21 20 21 24 26 28 30 31 33 34 35 35 36 36 36 36 36 37 38 39 40 41 43 44
9 11 11 12 12 12 12 13 13 13 14 12 10 9 10 11 11 11 10 10 10 10 10 10 10 11 12 13 14 14 15 15 15 14 14 15 15 15 14 13 12 12 15 19 23 25 26 27 27 24 21 20 20 20 21 22 23 24 24 23 23 21 21 23 25 27 29 31 32 33 34 35 36 37 37 38 39 40 41 43 43 43 44 45 46
10 11 13 13 12 11 12 13 12 12 12 10 8 6 6 6 8 9 8 8 8 9 9 8 9 10 11 12 13 14 15 16 15 14 13 13 13 13 13 12 12 12 14 17 20 23 24 24 23 21 21 21 22 23 24 23 23 23 24 23 23 22 23 25 27 28 30 32 33 33 34 35 37 39 39 40 40 39 40 41 41 40 41 42 42
8 9 12 12 11 11 13 13 12 10 9 8 7 5 5 5 6 7 7 7 8 9 10 10 11 11 13 14 15 16 17 17 17 15 15 14 13 13 12 11 11 13 15 17 20 22 22 22 22 23 23 24 24 24 24 23 23 23 23 24 24 25 26 28 30 31 32 34 35 36 37 37 37 37 36 36 34 32 31 32 32 32 33 34 34
3 4 7 7 7 9 11 11 9 8 8 7 6 6 7 7 7 7 6 7 8 10 11 12 12 13 14 16 17 18 18 19 18 17 16 16 15 14 12 11 12 14 15 17 19 21 22 22 23 24 24 24 24 24 23 23 23 23 23 24 25 27 28 30 32 34 36 37 37 37 37 35 33 32 30 29 28 27 26 25 24 24 26 28 28
8 7 7 6 6 7 8 8 8 8 8 8 8 9 9 9 9 8 8 10 11 12 12 13 14 14 14 16 17 19 20 20 19 18 17 17 16 15 13 12 12 14 15 17 18 19 20 21 21 22 23 23 23 23 23 22 22 22 23 25 27 29 31 33 35 36 36 36 36 35 33 32 30 29 27 27 26 26 25 23 21 20 21 23 24
16 14 13 12 11 10 9 9 9 8 9 9 10 10 11 11 12 12 13 14 15 15 15 14 15 15 16 17 18 20 21 20 19 18 17 16 16 15 13 12 12 14 15 17 18 19 20 20 20 21 21 21 22 22 21 21 22 24 26 28 29 31 32 34 34 35 34 34 32 32 31 30 30 28 27 26 26 26 24 21 20 20 20 21 23
21 18 15 14 13 13 13 13 12 11 10 10 10 11 11 11 13 14 15 17 17 18 18 17 17 17 17 17 18 19 20 19 18 16 15 16 16 15 13 12 12 13 15 16 18 19 19 20 20 20 20 20 21 22 23 24 26 27 28 29 29 30 31 32 32 31 31 30 30 30 30 30 30 29 27 27 26 26 24 22 21 21 21 21 22
21 21 19 18 17 16 16 16 15 15 15 14 13 13 12 12 13 14 15 17 18 19 20 20 20 18 17 17 17 18 18 18 17 17 17 16 16 15 13 12 12 14 15 16 17 18 19 20 21 21 21 22 23 25 26 26 27 27 27 28 29 30 30 29 28 28 28 28 29 30 30 29 28 28 27 27 26 26 26 25 25 25 25 25 25
20 21 20 20 20 19 19 18 17 17 18 18 18 18 17 17 17 16 16 17 18 19 21 22 21 20 18 17 17 17 17 17 18 18 17 16 15 14 13 13 14 15 16 17 18 19 20 21 21 21 22 22 23 24 24 25 25 25 26 27 27 27 26 26 26 26 27 28 28 29 28 28 27 28 28 27 27 28 28 27 28 28 28 28 29
24 24 23 21 20 21 21 21 21 20 20 20 21 21 21 20 19 18 19 20 20 20 21 23 24 23 21 19 18 17 17 17 17 18 17 15 14 14 15 15 16 16 16 16 17 17 18 18 17 18 19 20 21 22 23 23 23 23 22 23 24 24 24 25 26 26 27 27 27 28 29 29 30 29 28 28 28 28 28 28 29 29 29 30 32
21 23 24 24 22 21 20 21 21 20 20 20 21 22 21 21 21 20 20 19 19 19 21 25 25 22 19 17 16 16 15 17 18 18 17 15 14 15 16 16 15 15 14 13 13 14 14 15 15 16 17 19 20 20 20 20 20 20 21 22 23 24 25 25 25 25 26 27 29 31 32 32 32 31 29 28 28 27 27 28 30 31 31 31 33
17 19 22 23 22 20 18 18 19 20 20 21 22 23 21 21 21 22 22 21 19 17 19 22 20 16 15 15 15 15 16 18 19 18 15 14 14 15 15 14 12 11 11 11 11 12 14 15 16 16 16 17 17 17 18 19 20 21 22 23 24 24 24 24 24 25 26 29 31 32 33 33 32 31 30 29 28 27 26 28 30 31 31 31 33
17 18 19 21 22 22 20 19 19 20 20 21 23 24 21 19 19 20 21 21 19 17 17 19 17 17 17 17 17 16 17 18 17 15 13 13 14 13 12 11 10 10 11 11 12 13 14 15 15 15 16 16 16 18 19 20 21 22 22 22 22 22 22 23 25 27 28 30 31 33 33 33 33 32 30 30 29 28 27 28 29 30 31 31 33
25 23 22 21 22 23 23 22 21 20 19 19 21 23 23 21 20 19 19 19 19 18 18 18 18 18 17 16 16 15 14 14 14 13 12 12 12 11 11 11 11 11 11 12 12 13 14 15 15 15 16 16 17 19 20 20 20 20 19 19 20 22 23 25 26 28 30 32 32 31 31 32 32 31 30 30 31 30 29 30 30 30 30 31 33
32 30 28 26 24 23 22 22 23 22 22 20 20 21 22 21 19 18 17 18 19 19 18 17 17 17 15 14 13 13 12 12 12 12 12 12 12 11 11 11 10 11 12 12 13 13 14 14 14 15 15 16 17 17 17 17 17 18 19 20 22 23 25 27 29 31 33 32 29 28 28 29 30 30 30 31 31 32 31 31 31 30 31 31 32
33 33 32 31 29 26 23 21 21 21 22 22 21 21 21 19 17 17 18 19 20 18 17 15 15 14 13 11 11 12 14 14 13 13 13 12 11 10 9 9 10 11 12 12 12 12 13 13 12 13 13 14 15 15 15 16 17 18 20 23 24 26 28 30 31 31 29 26 25 26 27 28 29 30 30 30 31 31 32 32 31 31 31 31 31
32 32 32 32 32 30 26 23 21 20 20 20 21 21 20 18 18 19 20 19 19 17 16 15 14 13 13 11 10 12 14 15 15 14 11 9 9 8 8 9 10 11 11 11 10 10 10 9 10 11 13 13 14 14 14 15 17 19 21 24 26 28 28 27 26 24 23 23 24 26 27 27 27 28 28 28 29 29 30 30 31 31 30 30 31
34 33 32 32 32 32 29 28 26 24 22 22 21 21 21 20 21 20 19 19 18 18 17 15 13 12 12 13 13 14 15 16 15 12 9 8 8 9 9 10 10 11 10 9 7 7 8 8 10 12 12 12 13 13 14 16 18 20 21 22 23 24 23 22 21 22 22 23 24 25 25 25 25 26 26 27 27 27 28 29 29 29 29 29 29
38 36 34 33 32 31 30 30 28 26 24 24 23 22 22 22 21 20 19 19 19 19 17 16 14 14 14 15 16 17 17 16 14 11 10 9 10 10 11 10 9 8 7 6 6 7 8 10 11 12 12 12 12 13 14 15 16 18 19 21 22 22 21 21 21 22 23 23 24 24 24 24 24 25 25 25 25 26 27 27 27 27 27 28 28
39 38 37 36 34 32 31 29 27 26 25 24 24 24 23 22 21 20 19 19 18 17 17 18 18 18 18 18 19 18 17 15 13 12 11 11 11 10 9 7 5 4 5 6 7 8 9 10 10 11 11 10 10 10 12 13 15 17 18 19 20 20 20 20 21 22 23 24 25 24 24 24 24 24 24 24 25 25 25 26 26 26 26 26 26
37 38 38 36 34 33 33 31 27 25 24 23 23 23 23 21 21 21 19 18 18 18 19 21 23 23 23 22 20 18 16 14 13 12 11 9 8 7 5 4 3 5 6 7 8 9 9 9 9 9 9 8 8 9 12 14 15 16 17 19 20 20 20 20 21 22 24 25 25 25 25 24 24 23 23 24 24 24 25 25 25 25 25 25 24
31 33 35 35 33 31 32 33 31 27 25 25 24 23 23 23 23 22 20 19 20 21 22 25 26 26 26 23 19 17 15 14 12 11 9 8 6 4 2 2 4 6 6 7 8 8 7 6 7 7 7 6 8 10 11 13 15 17 20 22 22 21 21 21 21 22 24 26 26 25 25 25 24 23 23 23 24 24 24 24 24 24 24 24 23
27 26 27 30 31 29 27 30 32 30 28 27 25 24 25 26 25 23 22 22 24 25 26 27 27 25 23 20 17 15 14 12 11 9 8 6 4 1 2 4 6 6 6 7 7 6 5 6 6 6 5 6 8 10 12 15 18 20 22 24 24 23 22 22 23 23 25 27 27 26 24 25 24 23 22 22 22 23 23 23 23 22 22 22 22
25 24 22 23 28 29 26 25 28 29 29 28 27 27 27 27 25 23 23 26 28 27 27 26 24 20 18 16 15 14 12 11 9 7 5 4 2 1 4 5 6 6 6 6 5 4 4 5 5 4 4 6 8 11 14 17 20 22 24 25 26 25 24 23 24 24 25 28 28 26 24 24 24 24 22 21 21 21 22 22 21 20 20 20 20
16 18 19 20 24 27 27 25 26 29 29 29 30 30 28 26 24 25 27 29 29 27 25 22 19 18 16 15 14 13 11 9 7 6 5 3 2 4 4 5 5 5 4 4 4 4 4 5 4 4 4 6 9 13 16 19 22 24 25 26 26 26 25 25 24 25 26 28 27 25 24 24 24 24 24 22 21 21 20 20 19 18 18 18 18
10 13 17 21 23 26 27 26 27 29 29 28 28 28 26 25 27 29 30 29 27 25 24 21 19 19 18 16 14 13 11 9 8 7 6 4 4 5 4 4 4 4 3 4 3 3 4 5 5 4 4 7 11 14 17 20 23 24 25 26 27 26 26 26 26 26 26 28 27 25 23 24 24 24 23 22 21 21 20 19 18 18 17 17 16
13 15 18 21 23 24 24 23 23 26 28 28 27 28 29 30 30 30 28 26 25 24 23 21 19 18 16 14 13 14 13 11 10 9 7 6 5 5 3 4 4 4 3 3 3 4 5 6 5 4 5 8 11 14 16 20 23 25 25 26 26 26 26 26 27 27 27 27 27 25 23 23 24 23 23 22 21 20 19 18 17 16 15 15 14
17 19 20 22 23 24 24 23 24 26 27 27 27 28 30 30 29 27 25 24 23 22 20 19 17 15 14 13 13 13 13 12 11 10 9 7 6 4 3 4 4 3 2 3 4 5 7 7 5 4 5 7 10 13 16 19 22 24 25 26 26 26 26 26 27 27 27 27 27 26 24 23 23 23 22 22 21 19 18 17 16 15 14 13 12
20 21 22 23 24 23 23 22 22 23 24 25 26 28 28 27 25 25 24 22 20 19 18 17 16 15 14 13 12 12 12 12 12 11 9 8 6 5 5 5 5 3 3 3 4 5 7 7 5 4 6 8 10 13 16 18 21 23 24 25 25 25 25 26 26 26 27 27 27 26 24 23 23 22 21 21 20 18 17 16 15 15 14 13 12
27 26 26 26 25 25 25 25 26 27 28 28 28 27 25 24 23 23 21 19 18 17 17 17 16 15 14 13 13 12 12 12 12 11 9 8 8 7 6 6 5 3 3 3 3 5 6 5 4 5 7 8 10 13 15 18 21 22 23 23 23 23 24 25 25 25 26 26 26 26 25 23 22 21 20 19 18 17 16 15 14 13 13 12 11
36 35 35 34 33 31 30 29 29 28 27 26 25 24 22 21 21 20 18 16 16 16 16 15 15 15 14 14 14 14 13 12 11 10 9 8 8 7 6 5 4 2 2 2 3 4 5 4 4 5 7 8 10 13 15 18 21 22 23 22 22 22 23 24 24 24 25 25 25 26 25 23 22 20 18 17 17 17 16 15 14 12 11 10 9
33 32 31 29 28 27 26 26 26 26 25 24 22 21 20 19 18 17 16 15 15 15 15 14 14 15 15 15 15 14 12 11 10 9 9 9 8 6 4 4 3 1 1 1 3 3 4 4 5 6 7 8 10 13 16 19 21 21 22 22 22 21 22 24 24 24 25 25 25 25 24 23 21 20 18 16 16 16 16 15 13 12 11 10 8
27 26 25 25 24 23 22 22 22 22 20 19 18 17 17 17 16 16 15 15 15 15 15 14 15 15 15 15 14 13 12 10 9 9 10 10 8 5 3 3 2 1 1 1 2 3 3 4 5 5 6 8 10 13 16 19 20 21 21 22 22 21 22 23 24 24 24 25 25 25 24 22 21 20 17 15 15 15 15 14 13 12 12 12 10
22 22 21 21 20 20 19 18 18 17 16 16 16 16 16 16 16 16 16 15 15 15 14 14 15 15 14 14 13 11 10 9 9 9 9 9 7 5 3 2 1 1 2 2 2 3 4 5 5 5 5 7 10 14 17 19 20 20 21 22 21 21 21 23 23 23 24 25 26 25 24 23 21 20 18 15 14 14 14 14 13 12 12 12 11
16 16 15 15 15 16 15 15 15 15 15 15 15 15 16 16 16 16 15 15 14 14 14 14 14 13 13 13 12 10 9 8 9 10 9 8 7 6 3 1 0 1 3 4 4 4 5 5 4 4 5 7 11 14 16 18 20 20 19 20 21 20 21 22 23 23 24 25 26 25 24 23 21 20 18 16 14 13 14 13 13 12 12 12 12
Wind_Direction
228 221 210 203 206 209 208 205 207 208 207 210 212 205 202 202 199 197 193 184 173 163 158 155 151 146 144 144 140 134 129 121 111 105 97 91 101 178 286 280 217 231 238 237 251 275 277 268 262 258 262 313 34 24 14 358 349 357 359 352 349 340 334 334 330 329 337 338 332 332 329 322 323 321 311 301 292 286 285 289 290 287 286 284 283
219 211 208 208 209 210 207 204 205 206 206 210 214 210 207 206 204 203 202 197 188 178 172 170 167 166 166 165 156 143 132 120 107 89 62 31 350 320 305 294 280 270 268 264 258 266 274 274 269 265 272 290 305 330 347 340 331 340 348 343 339 334 330 328 325 324 328 332 332 330 329 326 324 325 320 311 303 292 282 282 285 286 292 296 296
210 209 211 212 211 209 207 205 206 205 205 211 215 213 210 207 206 206 206 205 200 194 190 188 186 186 188 190 181 166 156 149 139 106 354 317 313 311 306 301 296 288 287 285 278 276 279 279 276 270 270 280 289 300 316 321 319 323 328 328 326 325 323 321 319 318 319 323 328 327 327 326 323 322 319 313 309 302 293 287 283 278 280 283 284
210 214 215 213 212 210 207 207 205 203 205 212 216 217 215 211 208 207 209 210 206 203 202 199 197 197 200 203 200 196 191 192 217 265 282 288 289 292 294 293 293 291 289 288 286 286 287 284 280 278 274 276 282 286 293 300 301 303 308 313 317 317 316 314 314 314 314 316 320 322 322 321 320 319 315 308 304 301 298 296 291 283 278 277 283
209 211 210 210 210 208 206 206 205 205 206 209 212 214 214 213 210 208 210 213 210 208 206 204 205 209 214 218 220 220 219 227 253 274 282 286 284 283 285 283 284 286 285 284 283 285 288 287 282 280 278 278 282 283 283 288 289 291 298 305 309 311 311 310 310 310 311 312 314 316 317 316 315 315 312 306 302 299 295 294 294 291 288 284 286
209 209 205 202 201 202 205 207 209 210 211 212 213 211 209 210 210 208 210 212 211 210 209 209 212 217 224 230 235 239 243 257 279 286 283 281 278 273 273 275 278 279 279 279 278 278 282 283 278 277 278 278 280 282 282 284 287 287 291 297 301 302 303 305 307 309 310 310 311 313 314 313 313 313 310 307 305 304 301 297 294 292 291 291 288
212 211 207 202 201 204 208 209 208 207 208 210 208 202 197 202 207 209 209 209 208 206 206 209 213 222 235 244 251 257 257 266 283 285 276 272 270 265 264 270 272 273 275 275 273 273 274 275 273 272 274 275 276 280 281 279 279 279 281 286 292 297 300 304 307 308 309 309 310 311 312 313 314 314 311 307 304 301 300 299 297 294 291 290 290
211 211 207 201 200 202 202 200 201 201 199 196 194 193 194 199 207 213 212 211 209 205 204 209 214 224 240 252 258 259 257 268 281 281 272 266 265 263 266 270 266 265 269 271 271 269 268 270 270 269 272 274 275 278 279 277 278 277 277 282 289 294 299 303 306 307 307 309 310 311 311 312 313 312 310 307 305 300 297 298 298 297 294 292 293
213 215 210 200 201 209 210 200 197 196 195 197 203 214 217 215 219 223 219 213 209 210 221 231 231 232 239 248 252 252 255 267 277 275 267 264 265 264 267 268 264 261 263 266 267 267 265 266 267 267 269 271 273 275 275 277 278 276 278 287 294 297 299 303 306 306 307 309 311 312 311 311 314 314 312 313 314 311 305 302 299 297 296 293 292
212 211 209 201 203 214 218 216 217 221 219 218 223 227 225 221 219 220 219 218 223 235 244 247 245 239 240 248 253 255 258 265 270 268 267 268 270 270 269 269 267 265 263 263 263 262 262 263 264 264 265 266 269 270 272 276 278 278 284 294 300 301 303 306 307 307 309 313 316 318 317 315 316 318 317 317 316 311 308 306 303 302 301 297 293
212 210 208 205 208 214 215 217 224 229 227 223 218 213 211 213 217 222 227 231 237 240 238 239 240 239 243 252 256 258 259 261 264 266 267 270 272 273 273 271 269 267 266 264 261 258 257 259 260 260 261 263 265 266 268 273 276 281 290 298 302 303 305 308 309 310 313 318 321 323 323 320 318 319 320 318 315 311 308 308 308 308 308 307 303
216 217 211 210 215 213 200 197 204 210 210 203 198 197 204 217 226 230 232 230 228 230 233 238 242 243 248 252 252 253 255 255 258 261 264 268 271 272 273 272 271 268 268 265 259 254 254 256 257 257 257 259 263 265 267 271 278 289 296 299 300 301 303 305 307 310 315 319 320 321 322 321 319 319 320 319 316 313 311 310 311 311 310 310 307
198 197 188 185 183 167 160 164 173 185 193 193 196 203 212 221 224 220 217 216 220 229 234 236 240 245 249 251 252 254 255 258 262 265 268 270 270 270 271 273 273 271 270 267 260 254 254 255 253 253 254 257 261 263 266 273 283 290 293 293 294 296 299 303 306 310 313 315 315 315 317 318 318 318 319 318 315 314 313 311 311 310 309 308 306
183 179 172 170 169 162 162 167 172 179 187 193 201 206 205 207 211 212 215 222 229 233 234 235 241 247 250 252 256 258 261 266 270 271 272 272 271 271 271 272 275 275 272 267 261 257 255 254 252 252 254 257 260 261 266 275 283 285 286 288 290 293 297 302 305 307 307 307 307 309 312 313 314 314 314 313 312 312 312 310 309 308 306 305 304
208 197 179 172 173 172 173 177 180 182 185 188 192 196 203 212 219 224 226 231 235 236 239 244 248 252 255 258 260 264 268 272 275 277 278 277 276 276 276 275 277 277 271 263 259 256 251 247 247 248 249 252 257 261 267 274 278 280 282 284 287 290 294 299 301 300 299 301 302 305 308 309 309 310 310 309 309 308 307 305 304 303 303 302 301
215 208 195 189 189 187 183 185 189 190 191 193 197 202 211 216 219 224 227 230 234 236 239 245 250 253 255 258 263 268 274 278 284 287 285 284 284 282 281 280 281 278 268 258 252 249 244 240 242 245 248 249 251 256 263 269 274 277 278 279 281 284 290 296 297 296 296 297 299 300 302 303 304 304 305 305 304 303 302 299 298 298 298 297 297
211 206 203 201 203 203 200 199 201 200 201 205 207 203 199 197 201 208 213 219 229 237 242 249 255 258 258 261 266 272 279 289 296 298 296 295 295 294 294 295 293 287 273 258 248 243 239 236 238 243 248 247 247 254 262 269 275 277 276 276 277 281 289 292 292 292 292 292 293 294 296 298 299 299 299 298 298 298 297 295 295 295 293 293 294
207 207 208 207 210 215 215 215 217 217 217 215 205 195 189 193 197 198 202 211 222 234 246 258 266 271 273 274 276 280 286 294 299 303 307 310 309 307 304 303 300 290 275 258 244 236 232 232 237 244 247 247 251 258 265 271 275 276 275 274 276 281 286 286 285 285 285 285 286 288 289 290 291 292 292 292 291 292 291 291 292 292 290 290 292
193 200 203 207 215 218 219 224 227 225 223 215 206 216 235 233 221 214 217 227 232 238 246 254 262 270 275 278 282 285 290 295 297 299 304 310 315 313 303 292 286 277 266 254 243 238 238 243 248 249 248 250 257 262 265 270 272 272 271 272 275 280 282 282 283 284 284 285 286 288 289 289 289 290 290 290 291 291 290 290 291 291 289 288 290
209 198 193 190 195 201 207 215 220 220 219 220 231 251 254 243 234 236 245 253 257 255 251 250 254 261 268 272 277 282 286 289 290 291 294 299 306 308 299 284 276 272 267 260 255 251 252 254 255 254 253 255 259 261 263 267 269 269 271 274 277 280 282 284 286 288 289 291 292 293 294 294 295 295 295 296 297 298 297 295 295 293 291 290 290
268 272 255 235 210 198 196 194 193 200 212 224 240 252 253 247 243 249 260 268 273 274 270 265 262 262 265 267 268 273 277 279 280 282 284 289 296 300 294 283 274 272 270 267 264 262 260 257 254 254 254 255 258 260 262 265 268 271 274 277 279 281 284 285 287 289 291 292 294 295 296 298 299 300 301 302 303 304 304 303 300 297 294 292 292
268 274 267 261 253 243 234 222 212 214 218 221 225 230 238 247 249 254 264 270 275 279 282 282 276 270 269 269 267 267 269 270 272 274 278 285 291 292 288 280 274 273 272 269 267 264 261 258 256 255 255 256 258 260 263 268 273 276 277 279 281 284 286 287 288 289 291 293 295 298 301 303 303 303 303 304 306 307 307 305 300 298 294 290 290
258 260 257 255 250 245 244 242 241 246 248 242 232 223 224 234 241 249 258 264 269 275 281 286 283 277 274 272 269 267 266 267 270 273 277 282 283 282 280 275 270 271 273 270 267 264 261 261 261 260 259 260 262 267 272 276 278 279 281 283 286 287 287 288 289 291 294 297 301 304 306 306 304 303 304 305 305 306 305 301 297 295 292 290 287
249 249 249 250 248 246 247 249 251 255 255 251 243 234 231 236 245 255 262 266 270 275 279 281 280 278 274 270 268 269 271 273 274 276 278 278 274 273 273 270 267 269 269 267 265 264 262 261 261 261 262 266 270 274 278 280 282 284 286 287 287 288 289 291 294 298 301 303 304 305 305 305 304 303 303 303 302 301 300 297 295 293 292 291 288
254 248 246 246 248 250 252 253 253 252 250 248 248 248 249 251 256 262 267 270 272 272 272 272 272 271 267 265 269 275 277 277 276 275 273 269 268 270 270 268 266 264 262 262 261 261 262 261 262 264 266 269 273 276 279 282 284 286 286 286 287 290 293 296 299 301 302 303 303 304 304 305 305 302 299 298 297 296 295 294 292 291 290 289 287
255 251 248 246 248 250 252 253 252 251 250 249 249 249 251 253 255 257 260 262 264 266 267 266 263 259 255 257 268 276 278 278 276 271 265 260 262 268 267 264 263 262 262 263 262 261 262 263 264 266 268 270 273 275 277 279 279 280 282 286 289 293 295 297 299 299 300 301 301 301 301 300 299 297 295 292 291 291 292 291 291 291 291 290 289
239 240 244 245 244 244 246 248 246 246 248 247 245 247 251 254 255 254 253 256 261 265 265 259 253 250 251 257 266 272 276 278 272 261 254 254 260 264 264 261 263 265 265 264 260 257 258 259 262 265 269 272 274 275 276 277 279 282 285 287 289 291 292 294 295 295 296 297 298 298 298 298 297 295 292 288 286 287 289 289 290 292 293 294 293
232 229 231 232 231 232 236 239 239 241 245 248 250 253 254 255 254 253 254 258 263 265 261 257 258 266 274 274 272 271 273 273 263 248 245 253 259 260 260 262 265 266 263 259 258 259 261 265 271 275 277 278 279 280 283 285 287 289 289 289 289 290 290 290 290 291 294 296 297 298 299 300 299 297 292 287 285 286 288 288 289 291 293 295 294
248 241 233 229 227 227 229 233 236 239 243 247 251 253 249 245 247 251 253 257 261 261 258 259 269 282 283 276 270 271 273 267 253 241 245 254 254 252 255 256 255 256 258 260 264 268 273 279 282 282 282 283 284 287 289 290 290 291 291 290 290 290 292 295 297 299 300 301 301 302 303 303 302 301 297 291 289 290 291 291 291 292 294 294 293
257 252 246 241 236 233 233 235 236 237 239 243 247 248 244 241 243 247 248 250 253 256 257 263 273 276 271 264 264 269 270 259 244 238 245 246 240 238 242 244 246 254 262 267 273 278 283 285 284 284 285 287 291 294 295 296 296 296 294 294 295 299 302 304 306 307 307 307 306 305 305 305 305 305 303 299 297 296 296 295 294 295 294 294 294
259 256 252 249 245 242 240 240 240 242 244 244 243 242 241 240 241 242 243 244 248 251 255 264 271 267 256 253 257 254 244 236 234 233 233 230 227 229 235 242 253 263 269 275 281 285 285 285 284 285 289 294 299 302 303 304 304 304 303 303 305 308 310 310 310 309 309 309 309 309 309 309 309 308 306 304 301 300 297 295 295 294 294 294 294
258 256 252 249 247 246 243 240 239 241 243 242 237 235 236 238 239 241 243 243 244 247 252 258 261 256 247 247 250 240 227 221 220 218 217 219 224 232 242 254 264 271 277 283 285 285 283 283 285 291 298 304 308 309 309 309 310 311 311 311 310 311 311 311 311 311 312 313 314 314 314 312 310 308 306 304 302 299 297 295 294 293 293 293 292
259 257 253 249 248 248 246 240 234 231 231 232 230 229 232 238 244 247 245 241 241 244 248 249 249 245 238 231 230 231 227 217 209 207 211 218 227 236 248 258 265 270 277 282 284 285 286 288 297 307 314 315 314 312 312 314 314 313 311 310 310 310 312 314 316 317 318 317 315 313 312 310 308 307 305 304 301 299 297 295 294 293 292 291 290
258 257 254 251 248 248 247 244 241 236 234 232 232 232 234 240 246 248 247 245 244 242 240 239 235 228 222 216 213 217 218 210 203 203 210 216 225 238 250 257 263 269 275 281 290 297 301 307 315 320 319 317 314 313 313 312 311 311 313 315 316 319 322 324 324 321 319 316 314 313 313 312 311 310 308 306 304 301 298 296 295 293 292 291 290
256 254 252 249 246 243 242 242 241 237 234 233 234 236 237 239 244 250 252 252 247 240 232 226 217 211 210 208 205 205 204 200 197 201 210 219 231 245 253 256 262 273 288 304 312 314 317 321 322 320 317 315 313 311 312 315 321 327 330 330 329 328 327 325 322 321 321 321 320 320 320 318 316 315 313 312 309 306 302 300 298 296 294 292 290
253 252 249 246 242 237 234 234 232 231 231 232 233 235 237 240 245 249 249 244 239 232 223 211 199 193 193 195 194 194 194 194 198 208 219 229 240 246 248 249 262 296 322 328 324 322 322 321 320 318 316 311 309 315 328 340 346 347 343 338 334 331 327 326 328 329 330 329 328 327 326 324 322 321 319 315 312 308 305 303 301 298 296 294 292
250 248 246 244 240 233 228 227 226 225 226 228 229 230 233 238 241 239 234 227 223 219 210 197 187 182 180 182 184 186 189 196 206 216 223 229 236 238 235 243 293 331 338 332 326 322 320 318 319 317 311 309 322 342 356 358 354 350 347 345 343 341 338 336 337 336 336 335 334 332 330 328 328 326 323 318 314 310 308 306 304 301 299 297 294
250 246 242 239 235 231 226 224 223 222 223 224 224 227 231 233 229 224 219 215 210 205 198 190 185 181 177 175 178 186 195 203 210 213 214 213 213 215 228 316 338 340 334 327 322 319 318 320 319 314 313 328 347 358 2 359 354 352 351 349 347 346 345 342 341 341 340 340 338 335 334 333 332 330 325 320 317 315 313 310 308 305 303 301 298
249 245 239 233 228 224 221 219 219 219 220 221 221 226 229 223 213 207 206 203 200 196 190 183 179 177 177 179 184 190 196 200 200 202 205 202 195 195 342 341 340 334 325 321 320 321 323 321 316 316 328 343 351 358 1 358 355 352 350 347 347 348 348 346 344 343 343 342 340 337 337 337 336 332 328 324 321 319 317 314 311 308 307 305 303
243 238 232 224 218 214 211 211 213 215 216 219 221 223 221 213 202 198 198 195 189 184 179 174 173 176 181 184 184 184 187 190 192 196 199 195 199 307 325 331 334 329 322 323 330 333 327 315 309 316 329 338 352 2 3 358 353 351 349 348 348 348 349 349 346 345 344 343 341 339 339 340 340 338 333 329 326 323 320 316 314 311 308 307 308
229 224 216 206 203 203 201 204 210 212 213 216 216 212 207 200 194 191 188 184 178 173 169 169 170 170 170 168 169 174 183 187 186 186 189 199 254 288 305 326 334 328 329 344 350 341 323 308 302 306 322 346 2 4 0 356 353 350 349 349 349 349 350 350 348 345 344 343 342 341 340 342 343 341 337 333 330 328 324 319 316 312 309 310 314
175 185 186 183 184 190 194 201 208 210 208 208 205 198 192 188 185 182 178 174 170 165 162 161 159 159 160 162 166 174 185 192 191 191 201 226 262 280 292 311 318 322 346 7 358 325 301 295 294 305 339 2 5 1 356 354 352 350 349 350 350 349 350 350 348 346 345 345 344 343 342 344 344 342 339 337 336 333 329 324 320 316 312 313 318
147 155 163 167 174 183 190 197 203 202 199 196 191 184 180 177 173 169 166 163 162 161 159 157 156 158 163 169 173 179 190 200 204 206 216 237 263 278 285 295 304 316 349 6 344 304 287 285 293 318 351 3 1 357 354 353 351 349 350 352 351 350 350 350 350 350 349 348 347 346 345 346 346 343 341 342 341 337 333 329 324 320 315 314 317
143 149 157 165 173 181 187 192 193 190 185 181 175 171 167 163 159 157 158 159 161 163 163 163 166 168 173 179 184 189 196 204 209 213 222 240 260 270 276 285 292 306 346 358 333 301 283 279 287 315 340 353 357 354 353 353 353 351 351 352 352 351 351 351 351 352 352 351 350 348 347 347 346 345 345 346 346 342 337 331 325 321 317 314 312
144 151 158 164 168 171 173 172 169 163 158 154 151 151 151 151 153 158 161 162 162 164 168 173 178 182 187 191 193 193 194 199 205 212 225 244 254 252 258 275 286 303 339 343 316 288 277 273 279 304 326 344 353 351 351 355 356 354 354 354 353 352 352 352 352 353 353 353 352 350 348 347 347 346 346 349 351 349 344 337 329 322 319 315 310
115 121 125 128 130 132 132 132 133 134 136 138 140 142 146 151 156 160 161 162 163 167 173 180 185 190 194 197 195 194 197 204 211 222 235 246 243 235 245 268 281 294 324 325 298 280 276 271 279 307 326 343 351 350 351 356 357 356 356 357 355 352 352 354 355 355 355 354 353 352 351 349 347 346 347 350 353 354 353 350 344 336 329 324 316
99 103 107 109 112 115 118 123 128 133 137 140 142 145 149 155 160 161 162 165 168 171 175 180 185 190 194 196 197 200 206 213 222 231 236 234 226 225 242 265 273 279 310 308 281 275 274 267 277 307 326 343 351 352 354 358 358 356 357 359 358 355 354 356 -0 2 1 359 357 355 354 351 348 345 346 350 356 359 360 1 1 358 352 346 336
94 98 103 107 111 116 122 128 133 138 141 143 146 148 152 157 161 164 167 169 171 172 175 179 185 191 196 199 202 206 211 217 224 228 225 216 211 216 244 265 264 256 292 283 264 265 270 268 276 302 329 349 356 357 359 359 357 356 358 0 0 358 356 359 4 7 6 3 1 358 356 353 350 346 345 350 357 2 3 5 9 11 11 11 8
92 93 96 101 107 115 123 130 135 138 141 144 146 148 152 157 162 167 170 171 172 173 175 178 183 190 196 202 205 208 214 221 225 219 209 202 199 204 235 262 253 213 213 266 271 273 276 276 285 309 340 359 3 4 4 1 356 355 358 1 2 1 359 1 6 10 10 8 5 2 359 356 352 349 348 350 357 3 7 9 12 15 17 21 26
92 91 93 97 103 111 118 125 131 136 141 146 150 152 157 163 168 173 175 177 178 178 179 182 186 192 199 205 210 215 224 229 222 206 195 189 189 199 226 261 272 211 229 253 271 280 285 292 308 328 350 5 11 11 8 2 357 355 357 1 4 4 2 3 7 14 16 14 11 7 4 1 356 353 352 353 358 6 10 12 15 17 20 25 29
95 93 94 99 107 115 123 130 137 144 151 157 159 162 165 170 174 177 180 183 185 186 188 191 196 200 205 212 218 225 233 229 216 204 198 192 191 203 228 281 9 228 243 253 263 280 299 314 328 337 348 4 14 15 10 3 359 357 357 -0 4 6 5 6 11 17 20 19 16 13 11 7 3 359 357 358 2 9 14 17 20 23 26 27 28